QPF
0.00 0.02 0.03 0.04 0.05 0.06 0.05 0.04 0.03 0.01 0.01 0.01 0.01 0.03 0.09 0.07 0.04 0.03 0.03 0.04 0.03 0.01 0.02 0.02 0.04 0.04 0.11 0.07 0.06 0.11 0.13 0.07 0.04 0.02 0.02 0.03 0.02 0.02 0.03 0.04 0.05 0.06 0.04 0.02 0.03 0.02 0.02 0.02 0.02
0.01 0.03 0.03 0.04 0.05 0.05 0.06 0.04 0.02 0.01 0.01 0.01 0.01 0.01 0.02 0.03 0.02 0.01 0.02 0.02 0.02 0.01 0.01 0.01 0.03 0.04 0.11 0.17 0.18 0.18 0.13 0.07 0.04 0.02 0.02 0.02 0.01 0.01 0.01 0.02 0.04 0.05 0.04 0.04 0.05 0.03 0.02 0.02 0.02
0.01 0.03 0.03 0.05 0.05 0.08 0.09 0.06 0.03 0.01 0.01 0.01 0.01 0.01 0.01 0.02 0.02 0.02 0.03 0.01 0.01 0.01 0.01 0.02 0.04 0.04 0.06 0.08 0.11 0.10 0.07 0.05 0.03 0.03 0.02 0.02 0.02 0.02 0.01 0.02 0.03 0.05 0.04 0.04 0.06 0.04 0.03 0.02 0.02
0.02 0.03 0.05 0.05 0.05 0.08 0.12 0.10 0.04 0.01 0.01 0.01 0.01 0.01 0.01 0.01 0.01 0.01 0.01 0.00 0.00 0.01 0.01 0.01 0.05 0.04 0.04 0.04 0.04 0.04 0.03 0.03 0.03 0.04 0.04 0.03 0.02 0.02 0.02 0.02 0.04 0.05 0.05 0.05 0.06 0.04 0.04 0.04 0.03
0.03 0.04 0.04 0.04 0.05 0.07 0.09 0.08 0.04 0.02 0.02 0.01 0.01 0.02 0.02 0.02 0.01 0.01 0.01 0.01 0.01 0.02 0.02 0.01 0.04 0.04 0.04 0.04 0.03 0.03 0.03 0.02 0.02 0.05 0.06 0.04 0.03 0.02 0.02 0.03 0.04 0.04 0.05 0.06 0.08 0.05 0.04 0.07 0.08
0.06 0.06 0.04 0.03 0.06 0.07 0.03 0.02 0.02 0.02 0.02 0.01 0.01 0.03 0.03 0.03 0.02 0.02 0.01 0.02 0.01 0.01 0.01 0.01 0.02 0.03 0.04 0.03 0.02 0.02 0.02 0.02 0.02 0.04 0.07 0.06 0.04 0.02 0.01 0.01 0.02 0.03 0.03 0.04 0.06 0.05 0.04 0.05 0.07
0.05 0.04 0.03 0.03 0.06 0.06 0.03 0.02 0.02 0.02 0.02 0.03 0.02 0.03 0.02 0.03 0.02 0.01 0.01 0.01 0.01 0.00 0.00 0.01 0.02 0.03 0.04 0.02 0.02 0.02 0.03 0.03 0.02 0.03 0.05 0.05 0.03 0.02 0.02 0.02 0.02 0.02 0.02 0.02 0.03 0.04 0.05 0.05 0.06
0.03 0.03 0.02 0.02 0.04 0.05 0.03 0.02 0.01 0.01 0.02 0.01 0.01 0.02 0.02 0.02 0.03 0.03 0.02 0.03 0.03 0.01 0.01 0.01 0.01 0.02 0.02 0.01 0.03 0.02 0.04 0.03 0.02 0.02 0.02 0.03 0.03 0.03 0.02 0.02 0.02 0.02 0.02 0.02 0.02 0.03 0.04 0.06 0.07
0.03 0.03 0.03 0.03 0.04 0.04 0.03 0.01 0.01 0.01 0.02 0.02 0.02 0.01 0.01 0.01 0.02 0.02 0.03 0.05 0.06 0.02 0.02 0.02 0.02 0.01 0.01 0.01 0.02 0.02 0.01 0.01 0.01 0.01 0.01 0.01 0.02 0.01 0.02 0.02 0.02 0.01 0.02 0.02 0.03 0.04 0.04 0.05 0.05
0.05 0.04 0.03 0.01 0.02 0.02 0.02 0.01 0.01 0.02 0.03 0.03 0.02 0.01 0.01 0.02 0.02 0.01 0.02 0.03 0.04 0.02 0.02 0.02 0.02 0.03 0.03 0.02 0.02 0.01 0.01 0.00 0.00 0.00 0.01 0.01 0.01 0.01 0.02 0.01 0.02 0.02 0.02 0.03 0.04 0.04 0.04 0.02 0.02
0.05 0.04 0.02 0.01 0.01 0.01 0.01 0.01 0.02 0.02 0.02 0.02 0.02 0.01 0.01 0.03 0.04 0.02 0.01 0.03 0.02 0.02 0.02 0.02 0.02 0.02 0.02 0.01 0.01 0.01 0.01 0.01 0.01 0.00 0.01 0.00 0.00 0.01 0.01 0.01 0.01 0.02 0.02 0.02 0.02 0.02 0.01 0.01 0.00
0.03 0.02 0.01 0.01 0.01 0.01 0.01 0.01 0.01 0.01 0.02 0.02 0.02 0.02 0.02 0.03 0.03 0.02 0.01 0.02 0.02 0.02 0.02 0.02 0.02 0.03 0.03 0.02 0.02 0.02 0.01 0.01 0.01 0.01 0.02 0.02 0.01 0.02 0.02 0.01 0.01 0.02 0.01 0.01 0.01 0.01 0.01 0.01 0.01
0.04 0.05 0.03 0.02 0.02 0.01 0.01 0.01 0.00 0.01 0.01 0.03 0.06 0.04 0.02 0.02 0.02 0.02 0.03 0.03 0.03 0.03 0.03 0.03 0.04 0.04 0.04 0.04 0.04 0.04 0.02 0.01 0.01 0.01 0.02 0.02 0.02 0.02 0.02 0.02 0.01 0.02 0.02 0.02 0.03 0.03 0.02 0.03 0.03
0.04 0.04 0.04 0.02 0.01 0.01 0.01 0.00 0.00 0.01 0.02 0.02 0.05 0.05 0.04 0.03 0.03 0.04 0.04 0.04 0.04 0.05 0.05 0.04 0.04 0.04 0.03 0.03 0.04 0.03 0.02 0.01 0.01 0.01 0.02 0.01 0.01 0.01 0.02 0.02 0.01 0.02 0.03 0.02 0.03 0.04 0.04 0.05 0.04
0.04 0.04 0.03 0.02 0.02 0.01 0.01 0.01 0.01 0.01 0.02 0.02 0.02 0.03 0.03 0.03 0.03 0.03 0.03 0.04 0.04 0.05 0.06 0.06 0.07 0.05 0.04 0.03 0.03 0.03 0.02 0.01 0.01 0.01 0.02 0.02 0.01 0.02 0.02 0.03 0.02 0.03 0.03 0.02 0.02 0.03 0.03 0.04 0.03
0.03 0.04 0.03 0.02 0.02 0.01 0.02 0.01 0.01 0.02 0.01 0.02 0.02 0.01 0.02 0.02 0.02 0.03 0.03 0.03 0.05 0.06 0.06 0.06 0.06 0.05 0.03 0.02 0.02 0.02 0.02 0.01 0.01 0.01 0.01 0.01 0.02 0.02 0.02 0.02 0.02 0.03 0.03 0.02 0.01 0.00 0.01 0.01 0.01
0.03 0.04 0.03 0.02 0.01 0.01 0.02 0.02 0.02 0.02 0.01 0.02 0.01 0.01 0.01 0.02 0.03 0.04 0.04 0.05 0.07 0.08 0.06 0.06 0.07 0.05 0.04 0.03 0.03 0.02 0.02 0.01 0.01 0.01 0.01 0.01 0.01 0.02 0.02 0.01 0.01 0.02 0.01 0.01 0.01 0.00 0.00 0.01 0.01
0.02 0.02 0.02 0.03 0.02 0.01 0.02 0.02 0.02 0.02 0.01 0.01 0.01 0.01 0.01 0.01 0.02 0.05 0.04 0.04 0.05 0.05 0.05 0.06 0.06 0.05 0.06 0.04 0.04 0.04 0.03 0.01 0.00 0.01 0.02 0.01 0.01 0.01 0.01 0.01 0.00 0.01 0.00 0.00 0.00 0.01 0.01 0.01 0.01
0.01 0.02 0.01 0.02 0.02 0.02 0.02 0.02 0.02 0.02 0.02 0.02 0.01 0.01 0.02 0.02 0.03 0.03 0.04 0.04 0.04 0.04 0.03 0.04 0.05 0.06 0.07 0.05 0.05 0.04 0.04 0.02 0.01 0.01 0.01 0.01 0.01 0.01 0.01 0.01 0.01 0.00 0.00 0.01 0.01 0.01 0.01 0.01 0.02
0.01 0.02 0.01 0.02 0.02 0.03 0.02 0.03 0.03 0.02 0.02 0.02 0.02 0.01 0.03 0.03 0.03 0.04 0.05 0.04 0.03 0.03 0.03 0.05 0.06 0.08 0.08 0.06 0.06 0.05 0.04 0.02 0.02 0.01 0.01 0.01 0.01 0.01 0.01 0.01 0.01 0.01 0.01 0.01 0.01 0.01 0.01 0.01 0.01
0.04 0.02 0.01 0.01 0.02 0.03 0.03 0.03 0.03 0.03 0.02 0.02 0.02 0.01 0.02 0.03 0.04 0.05 0.05 0.04 0.03 0.02 0.02 0.03 0.04 0.04 0.06 0.08 0.09 0.08 0.06 0.06 0.04 0.02 0.02 0.02 0.01 0.01 0.01 0.01 0.00 0.01 0.01 0.01 0.01 0.01 0.01 0.01 0.01
0.05 0.03 0.01 0.01 0.01 0.03 0.03 0.03 0.02 0.02 0.02 0.02 0.02 0.02 0.02 0.03 0.05 0.05 0.04 0.04 0.04 0.04 0.04 0.03 0.03 0.03 0.05 0.06 0.10 0.11 0.10 0.12 0.10 0.05 0.03 0.04 0.02 0.01 0.01 0.00 0.00 0.00 0.00 0.00 0.01 0.01 0.02 0.01 0.02
0.02 0.04 0.03 0.02 0.01 0.01 0.01 0.02 0.02 0.02 0.02 0.02 0.02 0.05 0.06 0.04 0.05 0.05 0.04 0.04 0.04 0.05 0.05 0.04 0.04 0.05 0.05 0.05 0.07 0.09 0.10 0.11 0.08 0.06 0.06 0.07 0.05 0.03 0.02 0.00 0.00 0.00 0.01 0.01 0.01 0.01 0.02 0.01 0.01
0.01 0.02 0.04 0.03 0.02 0.02 0.01 0.01 0.02 0.02 0.03 0.05 0.05 0.06 0.08 0.03 0.03 0.04 0.04 0.05 0.05 0.05 0.05 0.04 0.03 0.04 0.04 0.06 0.08 0.09 0.09 0.08 0.06 0.05 0.05 0.07 0.09 0.08 0.06 0.04 0.01 0.00 0.01 0.01 0.01 0.02 0.01 0.01 0.01
0.01 0.02 0.03 0.03 0.02 0.02 0.01 0.01 0.02 0.03 0.03 0.04 0.03 0.02 0.03 0.02 0.02 0.02 0.02 0.04 0.05 0.04 0.04 0.03 0.03 0.04 0.05 0.05 0.09 0.10 0.09 0.07 0.06 0.05 0.03 0.03 0.04 0.05 0.06 0.07 0.04 0.01 0.01 0.01 0.01 0.01 0.01 0.02 0.02
0.01 0.02 0.03 0.03 0.02 0.02 0.01 0.01 0.02 0.02 0.02 0.02 0.01 0.02 0.02 0.02 0.01 0.01 0.02 0.02 0.03 0.02 0.02 0.02 0.04 0.05 0.05 0.06 0.07 0.07 0.07 0.06 0.05 0.05 0.04 0.03 0.02 0.02 0.03 0.03 0.03 0.02 0.01 0.01 0.00 0.01 0.02 0.02 0.02
0.01 0.02 0.01 0.02 0.01 0.02 0.02 0.02 0.02 0.02 0.02 0.01 0.02 0.02 0.02 0.01 0.01 0.01 0.01 0.01 0.01 0.02 0.02 0.03 0.03 0.04 0.05 0.05 0.06 0.08 0.07 0.06 0.06 0.06 0.06 0.04 0.03 0.03 0.03 0.02 0.02 0.01 0.01 0.01 0.00 0.01 0.02 0.03 0.03
0.01 0.01 0.01 0.02 0.02 0.02 0.02 0.02 0.02 0.02 0.02 0.01 0.02 0.02 0.01 0.01 0.00 0.01 0.01 0.01 0.01 0.02 0.03 0.03 0.03 0.04 0.04 0.04 0.05 0.06 0.07 0.07 0.07 0.06 0.06 0.05 0.04 0.03 0.03 0.03 0.02 0.02 0.01 0.01 0.01 0.01 0.02 0.03 0.02
0.01 0.01 0.01 0.01 0.02 0.02 0.02 0.02 0.01 0.01 0.01 0.01 0.01 0.01 0.01 0.01 0.01 0.01 0.01 0.01 0.01 0.01 0.02 0.03 0.02 0.02 0.02 0.03 0.04 0.04 0.05 0.06 0.06 0.05 0.06 0.06 0.05 0.05 0.04 0.03 0.03 0.03 0.01 0.01 0.02 0.03 0.03 0.02 0.01
0.01 0.01 0.01 0.01 0.01 0.01 0.01 0.01 0.01 0.01 0.01 0.01 0.01 0.01 0.01 0.01 0.02 0.01 0.01 0.02 0.03 0.02 0.02 0.02 0.02 0.02 0.02 0.02 0.03 0.04 0.05 0.07 0.09 0.09 0.09 0.09 0.07 0.06 0.06 0.05 0.04 0.03 0.03 0.02 0.02 0.02 0.03 0.03 0.02
MSLP
1010.57 1011.56 1012.67 1013.73 1014.57 1015.05 1015.13 1014.85 1014.31 1013.68 1013.15 1012.84 1012.81 1013.05 1013.47 1013.93 1014.29 1014.44 1014.33 1013.98 1013.48 1012.93 1012.46 1012.14 1012.03 1012.08 1012.25 1012.44 1012.59 1012.64 1012.58 1012.45 1012.29 1012.17 1012.12 1012.16 1012.27 1012.43 1012.58 1012.68 1012.72 1012.70 1012.64 1012.55 1012.48 1012.44 1012.43 1012.44 1012.45
1010.96 1012.09 1013.27 1014.29 1015.00 1015.28 1015.11 1014.58 1013.83 1013.05 1012.44 1012.11 1012.12 1012.44 1012.94 1013.48 1013.91 1014.11 1014.03 1013.72 1013.26 1012.77 1012.36 1012.12 1012.07 1012.18 1012.38 1012.59 1012.73 1012.77 1012.70 1012.56 1012.40 1012.29 1012.25 1012.30 1012.41 1012.56 1012.69 1012.78 1012.81 1012.78 1012.72 1012.65 1012.60 1012.58 1012.59 1012.61 1012.62
1011.48 1012.71 1013.88 1014.82 1015.35 1015.41 1015.00 1014.25 1013.33 1012.44 1011.78 1011.47 1011.54 1011.92 1012.49 1013.09 1013.55 1013.76 1013.71 1013.43 1013.02 1012.59 1012.26 1012.10 1012.12 1012.29 1012.52 1012.74 1012.88 1012.90 1012.82 1012.67 1012.51 1012.40 1012.36 1012.41 1012.51 1012.64 1012.76 1012.82 1012.83 1012.80 1012.75 1012.70 1012.68 1012.69 1012.72 1012.76 1012.79
1012.11 1013.36 1014.48 1015.28 1015.62 1015.46 1014.85 1013.93 1012.89 1011.96 1011.31 1011.04 1011.16 1011.59 1012.20 1012.81 1013.27 1013.48 1013.43 1013.17 1012.81 1012.45 1012.20 1012.11 1012.20 1012.40 1012.66 1012.87 1013.00 1013.00 1012.90 1012.74 1012.59 1012.48 1012.45 1012.49 1012.59 1012.70 1012.80 1012.84 1012.84 1012.81 1012.78 1012.76 1012.78 1012.83 1012.89 1012.96 1013.00
1012.79 1014.00 1015.01 1015.64 1015.79 1015.44 1014.68 1013.66 1012.58 1011.67 1011.06 1010.86 1011.03 1011.50 1012.10 1012.69 1013.11 1013.29 1013.23 1012.98 1012.65 1012.36 1012.18 1012.16 1012.30 1012.54 1012.79 1012.99 1013.08 1013.06 1012.94 1012.78 1012.63 1012.54 1012.53 1012.58 1012.68 1012.79 1012.88 1012.91 1012.91 1012.89 1012.88 1012.89 1012.94 1013.03 1013.12 1013.21 1013.27
1013.42 1014.54 1015.39 1015.84 1015.82 1015.33 1014.48 1013.44 1012.39 1011.55 1011.04 1010.91 1011.14 1011.61 1012.18 1012.71 1013.06 1013.19 1013.09 1012.85 1012.56 1012.33 1012.22 1012.26 1012.44 1012.68 1012.92 1013.09 1013.14 1013.09 1012.95 1012.80 1012.67 1012.60 1012.63 1012.72 1012.84 1012.96 1013.05 1013.09 1013.09 1013.08 1013.09 1013.13 1013.21 1013.32 1013.44 1013.54 1013.61
1013.92 1014.90 1015.57 1015.84 1015.66 1015.08 1014.21 1013.21 1012.26 1011.54 1011.15 1011.11 1011.38 1011.84 1012.36 1012.81 1013.08 1013.13 1013.00 1012.77 1012.52 1012.34 1012.29 1012.39 1012.59 1012.83 1013.04 1013.17 1013.18 1013.10 1012.96 1012.81 1012.72 1012.71 1012.79 1012.93 1013.09 1013.24 1013.35 1013.40 1013.41 1013.41 1013.42 1013.48 1013.57 1013.70 1013.83 1013.94 1014.00
1014.22 1015.02 1015.51 1015.60 1015.30 1014.67 1013.83 1012.92 1012.12 1011.55 1011.29 1011.35 1011.64 1012.08 1012.53 1012.88 1013.06 1013.05 1012.90 1012.68 1012.47 1012.35 1012.36 1012.50 1012.72 1012.95 1013.13 1013.22 1013.21 1013.11 1012.97 1012.86 1012.83 1012.88 1013.03 1013.24 1013.45 1013.64 1013.76 1013.83 1013.84 1013.84 1013.85 1013.91 1014.00 1014.13 1014.26 1014.36 1014.42
1014.29 1014.90 1015.19 1015.13 1014.73 1014.09 1013.31 1012.53 1011.88 1011.48 1011.35 1011.49 1011.81 1012.21 1012.59 1012.86 1012.96 1012.90 1012.74 1012.54 1012.39 1012.34 1012.40 1012.58 1012.81 1013.04 1013.20 1013.26 1013.22 1013.12 1013.02 1012.96 1012.99 1013.12 1013.35 1013.62 1013.88 1014.11 1014.26 1014.32 1014.34 1014.33 1014.33 1014.37 1014.46 1014.57 1014.69 1014.80 1014.85
1014.15 1014.57 1014.67 1014.47 1014.01 1013.37 1012.66 1012.02 1011.53 1011.28 1011.27 1011.46 1011.80 1012.16 1012.48 1012.68 1012.73 1012.65 1012.50 1012.34 1012.25 1012.26 1012.39 1012.60 1012.84 1013.06 1013.21 1013.26 1013.23 1013.16 1013.09 1013.10 1013.20 1013.41 1013.70 1014.03 1014.35 1014.60 1014.76 1014.83 1014.83 1014.81 1014.80 1014.82 1014.89 1015.00 1015.12 1015.22 1015.28
1013.87 1014.11 1014.05 1013.72 1013.21 1012.58 1011.96 1011.43 1011.08 1010.95 1011.02 1011.26 1011.59 1011.93 1012.20 1012.35 1012.37 1012.30 1012.18 1012.08 1012.05 1012.13 1012.30 1012.55 1012.80 1013.02 1013.17 1013.23 1013.22 1013.19 1013.18 1013.25 1013.43 1013.70 1014.05 1014.43 1014.77 1015.03 1015.20 1015.27 1015.27 1015.24 1015.21 1015.23 1015.30 1015.40 1015.53 1015.64 1015.71
1013.54 1013.62 1013.42 1013.00 1012.45 1011.85 1011.29 1010.85 1010.59 1010.54 1010.67 1010.92 1011.24 1011.55 1011.78 1011.92 1011.94 1011.90 1011.83 1011.79 1011.82 1011.95 1012.16 1012.42 1012.69 1012.91 1013.07 1013.16 1013.19 1013.21 1013.27 1013.40 1013.64 1013.97 1014.35 1014.75 1015.10 1015.37 1015.54 1015.61 1015.61 1015.58 1015.56 1015.59 1015.66 1015.78 1015.93 1016.07 1016.17
1013.24 1013.19 1012.89 1012.41 1011.84 1011.25 1010.74 1010.36 1010.16 1010.14 1010.28 1010.52 1010.82 1011.09 1011.32 1011.45 1011.50 1011.50 1011.48 1011.50 1011.58 1011.74 1011.97 1012.24 1012.51 1012.74 1012.92 1013.05 1013.14 1013.22 1013.34 1013.54 1013.82 1014.17 1014.56 1014.96 1015.31 1015.58 1015.75 1015.83 1015.85 1015.84 1015.85 1015.91 1016.01 1016.17 1016.35 1016.52 1016.67
1013.03 1012.90 1012.54 1012.03 1011.45 1010.89 1010.40 1010.05 1009.86 1009.83 1009.94 1010.15 1010.40 1010.65 1010.86 1011.02 1011.11 1011.16 1011.19 1011.26 1011.37 1011.54 1011.76 1012.03 1012.29 1012.54 1012.75 1012.92 1013.07 1013.23 1013.41 1013.65 1013.95 1014.31 1014.69 1015.07 1015.40 1015.66 1015.84 1015.95 1016.01 1016.06 1016.12 1016.23 1016.38 1016.58 1016.80 1017.02 1017.21
1012.92 1012.74 1012.36 1011.86 1011.30 1010.76 1010.29 1009.94 1009.72 1009.64 1009.69 1009.83 1010.04 1010.26 1010.48 1010.66 1010.79 1010.90 1010.99 1011.08 1011.20 1011.37 1011.58 1011.82 1012.08 1012.33 1012.58 1012.81 1013.03 1013.25 1013.49 1013.76 1014.07 1014.40 1014.76 1015.10 1015.41 1015.67 1015.87 1016.03 1016.15 1016.27 1016.40 1016.57 1016.79 1017.04 1017.30 1017.56 1017.78
1012.87 1012.69 1012.33 1011.87 1011.35 1010.84 1010.38 1010.00 1009.72 1009.56 1009.52 1009.59 1009.73 1009.93 1010.15 1010.36 1010.55 1010.72 1010.85 1010.97 1011.10 1011.25 1011.43 1011.64 1011.89 1012.16 1012.45 1012.74 1013.03 1013.31 1013.60 1013.88 1014.18 1014.49 1014.80 1015.10 1015.39 1015.64 1015.88 1016.09 1016.29 1016.49 1016.71 1016.96 1017.23 1017.52 1017.81 1018.10 1018.35
1012.82 1012.66 1012.37 1011.97 1011.52 1011.05 1010.59 1010.17 1009.81 1009.55 1009.40 1009.36 1009.44 1009.60 1009.83 1010.09 1010.35 1010.57 1010.76 1010.91 1011.04 1011.17 1011.32 1011.52 1011.76 1012.05 1012.38 1012.73 1013.08 1013.43 1013.75 1014.05 1014.33 1014.60 1014.86 1015.12 1015.38 1015.64 1015.91 1016.18 1016.46 1016.75 1017.05 1017.36 1017.67 1017.99 1018.31 1018.60 1018.86
1012.69 1012.60 1012.39 1012.10 1011.73 1011.31 1010.84 1010.36 1009.91 1009.52 1009.24 1009.10 1009.10 1009.23 1009.48 1009.78 1010.11 1010.41 1010.66 1010.85 1011.00 1011.12 1011.26 1011.44 1011.69 1012.00 1012.38 1012.79 1013.21 1013.61 1013.96 1014.27 1014.53 1014.75 1014.96 1015.17 1015.41 1015.68 1015.98 1016.31 1016.67 1017.03 1017.39 1017.74 1018.08 1018.41 1018.72 1019.01 1019.27
1012.44 1012.44 1012.36 1012.18 1011.91 1011.53 1011.06 1010.52 1009.95 1009.43 1009.01 1008.74 1008.66 1008.76 1009.02 1009.39 1009.80 1010.19 1010.52 1010.77 1010.95 1011.09 1011.23 1011.41 1011.67 1012.01 1012.43 1012.90 1013.37 1013.82 1014.20 1014.51 1014.75 1014.93 1015.10 1015.27 1015.49 1015.76 1016.09 1016.47 1016.88 1017.30 1017.70 1018.07 1018.41 1018.72 1019.01 1019.28 1019.54
1012.08 1012.20 1012.24 1012.20 1012.03 1011.70 1011.21 1010.60 1009.91 1009.24 1008.66 1008.27 1008.10 1008.17 1008.45 1008.88 1009.39 1009.88 1010.31 1010.64 1010.88 1011.05 1011.20 1011.40 1011.67 1012.04 1012.50 1013.01 1013.54 1014.02 1014.44 1014.75 1014.97 1015.13 1015.26 1015.40 1015.60 1015.88 1016.23 1016.64 1017.08 1017.52 1017.94 1018.31 1018.63 1018.91 1019.16 1019.40 1019.64
1011.64 1011.89 1012.08 1012.18 1012.11 1011.82 1011.32 1010.62 1009.80 1008.96 1008.23 1007.70 1007.45 1007.48 1007.78 1008.28 1008.88 1009.49 1010.03 1010.45 1010.76 1010.98 1011.17 1011.38 1011.67 1012.06 1012.54 1013.09 1013.65 1014.17 1014.60 1014.92 1015.14 1015.29 1015.40 1015.53 1015.72 1016.00 1016.35 1016.78 1017.23 1017.68 1018.08 1018.43 1018.71 1018.94 1019.15 1019.36 1019.59
1011.19 1011.58 1011.93 1012.16 1012.19 1011.94 1011.40 1010.62 1009.66 1008.67 1007.78 1007.12 1006.77 1006.77 1007.08 1007.64 1008.34 1009.06 1009.71 1010.23 1010.62 1010.89 1011.11 1011.33 1011.63 1012.02 1012.52 1013.08 1013.66 1014.20 1014.65 1015.00 1015.23 1015.38 1015.50 1015.63 1015.82 1016.09 1016.44 1016.87 1017.32 1017.75 1018.13 1018.44 1018.68 1018.86 1019.02 1019.20 1019.41
1010.78 1011.32 1011.84 1012.20 1012.31 1012.09 1011.52 1010.65 1009.57 1008.42 1007.39 1006.60 1006.16 1006.11 1006.43 1007.03 1007.81 1008.63 1009.38 1009.99 1010.45 1010.77 1011.02 1011.25 1011.54 1011.92 1012.40 1012.96 1013.55 1014.10 1014.58 1014.95 1015.21 1015.38 1015.52 1015.66 1015.86 1016.14 1016.49 1016.90 1017.34 1017.74 1018.09 1018.36 1018.56 1018.70 1018.82 1018.97 1019.17
1010.44 1011.15 1011.81 1012.30 1012.48 1012.29 1011.69 1010.74 1009.55 1008.27 1007.10 1006.20 1005.68 1005.59 1005.90 1006.53 1007.36 1008.25 1009.08 1009.77 1010.28 1010.64 1010.90 1011.13 1011.40 1011.75 1012.21 1012.75 1013.32 1013.88 1014.38 1014.79 1015.08 1015.30 1015.47 1015.64 1015.86 1016.14 1016.49 1016.89 1017.30 1017.68 1018.00 1018.24 1018.40 1018.50 1018.60 1018.72 1018.91
1010.16 1011.02 1011.83 1012.42 1012.68 1012.50 1011.88 1010.87 1009.59 1008.22 1006.95 1005.96 1005.37 1005.24 1005.53 1006.17 1007.04 1007.97 1008.85 1009.58 1010.13 1010.51 1010.76 1010.98 1011.22 1011.53 1011.95 1012.46 1013.02 1013.59 1014.11 1014.54 1014.88 1015.14 1015.36 1015.57 1015.81 1016.10 1016.45 1016.84 1017.23 1017.58 1017.88 1018.09 1018.24 1018.33 1018.40 1018.51 1018.68
1009.90 1010.90 1011.82 1012.50 1012.81 1012.65 1012.02 1010.98 1009.65 1008.22 1006.90 1005.86 1005.23 1005.06 1005.33 1005.96 1006.83 1007.78 1008.68 1009.43 1009.99 1010.37 1010.63 1010.82 1011.03 1011.31 1011.69 1012.17 1012.71 1013.27 1013.80 1014.26 1014.65 1014.96 1015.22 1015.47 1015.73 1016.03 1016.38 1016.75 1017.12 1017.47 1017.75 1017.96 1018.10 1018.19 1018.26 1018.36 1018.51
1009.59 1010.71 1011.71 1012.44 1012.78 1012.64 1012.02 1010.97 1009.64 1008.21 1006.89 1005.84 1005.20 1005.01 1005.26 1005.88 1006.73 1007.66 1008.55 1009.30 1009.86 1010.25 1010.49 1010.67 1010.86 1011.11 1011.46 1011.91 1012.43 1012.98 1013.52 1014.01 1014.42 1014.77 1015.07 1015.35 1015.63 1015.94 1016.28 1016.64 1017.00 1017.33 1017.61 1017.83 1017.99 1018.10 1018.18 1018.28 1018.41
1009.19 1010.36 1011.40 1012.16 1012.51 1012.38 1011.77 1010.76 1009.47 1008.09 1006.82 1005.81 1005.20 1005.02 1005.27 1005.86 1006.68 1007.58 1008.44 1009.18 1009.73 1010.12 1010.37 1010.55 1010.73 1010.97 1011.31 1011.73 1012.24 1012.78 1013.31 1013.81 1014.24 1014.61 1014.93 1015.22 1015.51 1015.81 1016.14 1016.49 1016.84 1017.18 1017.47 1017.71 1017.90 1018.04 1018.14 1018.25 1018.38
1008.65 1009.82 1010.85 1011.58 1011.91 1011.78 1011.20 1010.25 1009.05 1007.78 1006.61 1005.70 1005.15 1005.01 1005.27 1005.84 1006.62 1007.48 1008.31 1009.02 1009.57 1009.97 1010.24 1010.44 1010.64 1010.90 1011.23 1011.65 1012.14 1012.66 1013.19 1013.67 1014.10 1014.47 1014.79 1015.08 1015.36 1015.66 1015.97 1016.31 1016.65 1016.99 1017.30 1017.57 1017.80 1017.98 1018.12 1018.25 1018.38
1007.99 1009.11 1010.06 1010.71 1010.99 1010.85 1010.31 1009.44 1008.36 1007.24 1006.22 1005.45 1005.01 1004.93 1005.21 1005.77 1006.51 1007.33 1008.12 1008.81 1009.36 1009.77 1010.08 1010.33 1010.57 1010.86 1011.21 1011.64 1012.12 1012.62 1013.12 1013.59 1014.00 1014.35 1014.65 1014.92 1015.19 1015.47 1015.77 1016.09 1016.43 1016.77 1017.10 1017.40 1017.67 1017.90 1018.08 1018.25 1018.39
Thickness
5801 5800 5796 5783 5759 5739 5735 5747 5757 5760 5763 5770 5773 5767 5757 5749 5744 5738 5757 5765 5765 5763 5763 5763 5763 5763 5764 5765 5765 5765 5763 5762 5762 5762 5762 5762 5762 5761 5761 5761 5760 5760 5760 5760 5759 5759 5760 5760 5760
5800 5798 5786 5768 5742 5724 5732 5749 5754 5763 5769 5773 5771 5766 5757 5751 5757 5756 5759 5763 5763 5762 5762 5761 5761 5761 5761 5761 5761 5761 5760 5760 5760 5760 5760 5760 5759 5759 5758 5758 5757 5757 5756 5756 5756 5756 5756 5756 5756
5799 5794 5772 5754 5738 5727 5736 5751 5758 5769 5776 5773 5764 5762 5755 5751 5757 5757 5760 5762 5761 5760 5759 5759 5759 5758 5758 5758 5757 5757 5757 5757 5757 5758 5759 5758 5757 5756 5755 5754 5754 5753 5753 5752 5752 5753 5753 5753 5753
5791 5778 5764 5745 5737 5744 5748 5754 5763 5766 5769 5770 5762 5752 5754 5760 5760 5760 5762 5761 5759 5757 5756 5756 5756 5755 5755 5755 5755 5754 5754 5754 5754 5755 5757 5755 5753 5752 5751 5750 5750 5749 5749 5749 5748 5749 5749 5749 5750
5783 5763 5745 5734 5739 5749 5757 5762 5765 5762 5761 5761 5758 5745 5745 5758 5763 5762 5760 5758 5756 5754 5754 5753 5753 5753 5752 5752 5752 5751 5751 5751 5751 5751 5752 5751 5749 5748 5747 5747 5746 5745 5745 5745 5745 5745 5746 5746 5746
5765 5753 5731 5726 5736 5748 5757 5764 5764 5759 5757 5758 5754 5743 5742 5755 5757 5757 5757 5755 5754 5752 5751 5750 5750 5750 5749 5749 5748 5748 5748 5747 5747 5747 5746 5745 5744 5744 5743 5743 5742 5741 5741 5741 5741 5741 5742 5742 5742
5756 5742 5731 5732 5733 5741 5755 5764 5760 5756 5753 5755 5756 5740 5740 5749 5755 5756 5755 5753 5752 5750 5748 5747 5747 5746 5746 5745 5745 5745 5744 5743 5743 5742 5742 5741 5740 5740 5739 5738 5738 5738 5738 5737 5737 5738 5738 5738 5738
5764 5744 5733 5731 5733 5740 5757 5764 5763 5758 5754 5762 5758 5740 5736 5746 5754 5754 5752 5750 5748 5746 5745 5744 5743 5743 5742 5742 5741 5741 5740 5739 5738 5738 5737 5736 5736 5735 5734 5734 5733 5734 5733 5733 5733 5734 5733 5734 5733
5766 5734 5724 5732 5736 5743 5757 5757 5760 5763 5758 5756 5756 5752 5751 5753 5752 5748 5745 5743 5742 5742 5742 5741 5740 5740 5739 5738 5737 5736 5736 5735 5734 5733 5732 5732 5731 5730 5730 5729 5729 5729 5729 5729 5729 5729 5729 5729 5729
5752 5728 5734 5747 5750 5750 5754 5754 5755 5750 5744 5743 5745 5749 5751 5749 5746 5742 5739 5737 5737 5737 5738 5738 5738 5737 5736 5735 5734 5732 5732 5731 5730 5729 5727 5727 5726 5726 5725 5725 5725 5724 5724 5724 5724 5725 5724 5724 5724
5752 5738 5746 5752 5758 5757 5752 5752 5755 5743 5734 5738 5738 5741 5743 5742 5740 5738 5737 5737 5737 5737 5737 5736 5736 5734 5733 5732 5731 5729 5728 5727 5726 5725 5723 5722 5721 5721 5720 5720 5720 5719 5720 5720 5719 5719 5719 5719 5718
5749 5749 5753 5754 5760 5756 5751 5750 5746 5743 5741 5747 5746 5745 5741 5738 5736 5735 5734 5734 5735 5735 5735 5735 5734 5732 5731 5730 5728 5726 5724 5723 5722 5721 5720 5718 5717 5716 5715 5715 5715 5715 5715 5715 5715 5715 5715 5714 5713
5745 5745 5753 5756 5756 5753 5750 5745 5743 5741 5746 5747 5745 5741 5737 5735 5735 5736 5736 5734 5733 5732 5732 5733 5732 5729 5728 5726 5725 5723 5721 5720 5719 5717 5716 5715 5713 5711 5711 5710 5710 5710 5711 5711 5711 5710 5710 5709 5708
5747 5746 5747 5750 5750 5750 5742 5739 5738 5735 5742 5740 5737 5734 5734 5734 5733 5732 5731 5730 5730 5730 5730 5731 5730 5728 5726 5724 5722 5720 5719 5717 5716 5714 5713 5711 5710 5708 5707 5706 5706 5706 5706 5707 5706 5706 5705 5704 5704
5749 5738 5736 5740 5744 5743 5739 5724 5727 5734 5736 5732 5731 5730 5731 5732 5731 5730 5730 5729 5729 5729 5729 5728 5728 5726 5723 5721 5720 5718 5716 5714 5713 5711 5709 5708 5706 5705 5704 5702 5702 5702 5702 5702 5702 5701 5701 5700 5699
5737 5724 5713 5728 5736 5738 5727 5707 5723 5732 5729 5724 5724 5725 5726 5727 5729 5730 5730 5729 5728 5727 5725 5725 5725 5722 5720 5718 5717 5715 5713 5711 5709 5708 5706 5704 5703 5702 5701 5699 5698 5698 5698 5698 5697 5696 5695 5694 5693
5715 5704 5706 5716 5731 5730 5720 5708 5720 5727 5725 5719 5720 5720 5721 5722 5724 5726 5727 5726 5726 5724 5723 5721 5720 5718 5716 5715 5713 5711 5709 5708 5706 5704 5703 5701 5700 5699 5697 5696 5695 5695 5694 5694 5694 5692 5691 5689 5688
5702 5703 5705 5707 5721 5722 5712 5708 5716 5721 5720 5716 5716 5716 5716 5717 5719 5722 5723 5723 5723 5722 5720 5718 5717 5715 5713 5710 5708 5706 5704 5703 5702 5701 5699 5698 5696 5695 5694 5692 5692 5691 5690 5689 5689 5687 5686 5685 5685
5714 5707 5702 5708 5720 5714 5706 5705 5710 5715 5714 5712 5710 5711 5712 5714 5717 5719 5719 5719 5719 5718 5716 5714 5712 5711 5709 5706 5703 5699 5697 5697 5696 5696 5695 5694 5693 5692 5690 5689 5688 5687 5686 5685 5685 5683 5682 5681 5681
5712 5703 5700 5707 5716 5711 5702 5701 5707 5711 5710 5711 5709 5708 5709 5710 5711 5713 5714 5715 5714 5713 5712 5710 5709 5708 5706 5704 5702 5699 5696 5693 5693 5692 5691 5690 5689 5688 5687 5686 5685 5684 5682 5681 5681 5680 5677 5677 5678
5708 5702 5701 5701 5707 5706 5698 5690 5696 5705 5709 5710 5710 5709 5709 5709 5708 5708 5709 5709 5709 5708 5707 5707 5705 5704 5703 5700 5698 5695 5691 5689 5687 5686 5685 5686 5686 5685 5684 5683 5682 5681 5680 5678 5677 5677 5675 5673 5673
5698 5712 5709 5704 5692 5681 5689 5669 5686 5694 5698 5701 5703 5704 5705 5707 5707 5706 5705 5705 5705 5705 5705 5704 5702 5700 5699 5697 5694 5691 5687 5683 5682 5682 5681 5682 5682 5681 5681 5680 5679 5678 5677 5676 5676 5675 5674 5672 5670
5708 5715 5708 5703 5691 5680 5681 5670 5676 5689 5687 5693 5697 5700 5703 5704 5704 5702 5701 5701 5701 5701 5700 5700 5698 5697 5696 5694 5692 5690 5686 5682 5680 5679 5678 5678 5677 5677 5677 5677 5676 5675 5674 5674 5674 5673 5672 5671 5669
5716 5705 5697 5687 5677 5665 5675 5667 5668 5679 5687 5692 5695 5698 5699 5700 5700 5699 5698 5697 5696 5696 5695 5694 5693 5692 5692 5691 5689 5687 5684 5681 5677 5675 5674 5673 5673 5673 5673 5674 5673 5672 5672 5672 5671 5671 5670 5669 5668
5703 5680 5661 5658 5651 5657 5675 5668 5670 5689 5696 5697 5696 5695 5696 5696 5695 5693 5692 5690 5690 5690 5689 5689 5687 5686 5687 5686 5685 5684 5682 5679 5676 5674 5672 5670 5669 5669 5670 5671 5670 5669 5669 5670 5669 5668 5667 5666 5665
5695 5681 5658 5650 5647 5654 5669 5663 5676 5694 5698 5700 5699 5696 5694 5691 5690 5690 5689 5688 5686 5686 5685 5684 5683 5681 5681 5681 5680 5680 5679 5676 5674 5673 5671 5669 5669 5669 5669 5668 5668 5667 5667 5667 5666 5665 5665 5664 5663
5691 5681 5680 5663 5660 5650 5655 5666 5678 5690 5691 5692 5692 5690 5688 5688 5687 5686 5686 5685 5683 5682 5681 5680 5678 5676 5676 5676 5675 5675 5675 5673 5671 5670 5669 5668 5668 5668 5667 5666 5666 5665 5664 5664 5663 5662 5662 5661 5660
5699 5688 5668 5659 5649 5641 5650 5656 5660 5674 5678 5683 5684 5684 5684 5684 5684 5683 5682 5681 5679 5679 5678 5677 5675 5673 5672 5672 5671 5671 5670 5670 5669 5668 5666 5665 5665 5665 5664 5663 5662 5661 5661 5661 5659 5658 5658 5657 5656
5687 5682 5671 5657 5652 5640 5637 5649 5678 5678 5680 5679 5680 5681 5680 5680 5679 5678 5677 5677 5676 5674 5673 5671 5670 5669 5668 5667 5666 5666 5665 5665 5664 5664 5663 5662 5661 5661 5660 5659 5658 5657 5656 5656 5655 5654 5653 5652 5651
5690 5681 5668 5652 5647 5643 5636 5647 5683 5681 5681 5679 5678 5678 5678 5677 5676 5674 5673 5671 5669 5668 5667 5666 5664 5663 5663 5662 5661 5660 5660 5659 5658 5657 5657 5657 5657 5657 5656 5655 5654 5653 5652 5652 5650 5649 5648 5647 5646